Meteo Giornale » Osservazioni meteo Italia » Gioia Del Colle

ore: 02:55 - Osservazioni Meteo Gioia Del Colle
Lat. 40° 46' N Lon. 16° 56' E Alt. 345 metri s.l.m.

nuvoloso Europe/Rome

11 °C

Nuvoloso

Temp. 24 Ore

11 °C

14 °C

Nord-Ovest

22.2 Km/h

Dew point 10 °C

Umidità 93 %

Visibilità  7 Km

Il sole sorge alle ore 06:41

Il sole tramonta alle ore 16:33

Data e Ora Cielo e Fenomeni T °C DP °C Um. % Pres. hPa Vis. km Vento km/h
Oggi h: 02:55 nuvoloso Nuvoloso 11 10 93 1012 7 NO 22.2
Oggi h: 01:55 nuvoloso Nuvoloso 11 10 93 1012 7 N/NO 22.2
Oggi h: 00:55 nuvoloso Nuvoloso 11 10 93 1012 7 N/NO 24
Ieri h: 23:55 nuvoloso Nuvoloso 11 10 93 1012 7 N/NO 25.9
Ieri h: 21:55 nuvoloso Nuvoloso 11 11 100 1012 9 N/NO 18.5
Ieri h: 20:55 nuvoloso Nuvoloso 11 11 100 1012 9 N/NO 18.5
Ieri h: 19:55 molto_nuvoloso Molto Nuvoloso 11 11 100 1012 8 N/NO 20.3
Ieri h: 18:55 molto_nuvoloso Molto Nuvoloso 11 11 100 1012 7 N/NO 20.3
Ieri h: 17:55 coperto_pioggia Pioggia Debole Foschia 11 11 100 1011 5 N/NO 25.9
Ieri h: 16:55 coperto_pioggia Pioggia Foschia 11 11 100 1011 4 N 18.5
Ieri h: 15:55 coperto_pioggia Pioggia Foschia 12 12 100 1011 4 N/NO 25.9
Ieri h: 14:55 coperto_pioggia Pioggia Foschia 12 12 100 1011 5 N/NO 24
Ieri h: 13:55 coperto_pioggia Pioggia Debole 13 12 93 1011 7 N 27.8
Ieri h: 12:55 coperto_pioggia Pioggia Debole 14 12 87 1011 8 N 22.2
Ieri h: 11:55 molto_nuvoloso Molto Nuvoloso 14 12 87 1012 9 N 22.2
Ieri h: 10:55 coperto_pioggia Pioggia Debole 14 12 87 1012 8 N 18.5
Ieri h: 09:55 poco_nuvoloso Poco Nuvoloso 14 11 82 1012 8 N 18.5
Ieri h: 08:55 poco_nuvoloso Poco Nuvoloso 13 13 100 1011 7 N 16.7
Ieri h: 07:55 foschia Foschia 12 12 100 1011 5 N/NO 13
Ieri h: 06:55 foschia Foschia 12 11 93 1011 5 N/NO 9.3
Ieri h: 05:55 coperto_pioggia Pioggia Debole Foschia 12 11 93 1011 4 N 5.5
Ieri h: 03:55 nuvoloso Nuvoloso 11 11 100 1011 7 N 14.8
Ieri h: 02:55 nuvoloso Nuvoloso 11 11 100 1011 7 N 18.5